Location: Fluertsh�userhof
(48.7537°N, 10.3850°E)
Time: 10:31:46
(UTC+00:00)

Cosmos 1626 - Pass Details

Date: 19 January 2021
Orbit: 490 x 494 km, 82.5° (Epoch: 28 February)

Event Time Altitude Azimuth Distance (km) Brightness Sun altitude
Rises 16:59:24 0° 195° (SSW) 2,565 6.3 -10.3°
Reaches altitude 10° 17:01:30 10° 199° (SSW) 1,687 5.3 -10.6°
Maximum altitude 17:05:11 64° 281° (WNW) 552 2.6 -11.2°
Drops below altitude 10° 17:08:52 10° 4° (N) 1,700 4.6 -11.8°
Sets 17:11:01 0° 8° (N) 2,587 5.5 -12.1°
